^^
Saratoga-Weather Station Historical Data
Daily Summary for May 22, 2022 Units:  English    Metric   Both
Daily Weekly Monthly Yearly Custom
  High: Low: Average:
Temperature: 74.7 °F 49.1 °F 62.8 °F
Dew Point: 58.8 °F 44.4 °F 51.8 °F
Humidity: 92% 36% 70%
Wind Speed: 6mph 0mph 0.6mph
Wind Gust: 9mph - -
Wind- - SSE
Pressure: 30.1 in 29.8 in -
Precipitation: 0 in    
Historical Graphs
 
 
Tabular Data for May 22, 2022
Time Temperature Dew Point Pressure Wind Wind Speed Wind Gust Humidity Rainfall Rate (Hourly) solar
00:01 57.6 °F 49.6 °F 30.1 in Calm     75% 0 in 0 W/m2
00:06 57.6 °F 49.6 °F 30.1 in Calm     75% 0 in 0 W/m2
00:11 57.4 °F 49.5 °F 30.1 in Calm     75% 0 in 0 W/m2
00:16 57 °F 49.1 °F 30.1 in Calm     75% 0 in 0 W/m2
00:21 56.8 °F 49.3 °F 30.1 in Calm     76% 0 in 0 W/m2
00:26 56.7 °F 49.1 °F 30.1 in Calm     76% 0 in 0 W/m2
00:31 56.5 °F 49.3 °F 30.1 in Calm     77% 0 in 0 W/m2
00:36 56.3 °F 49.1 °F 30.1 in Calm     77% 0 in 0 W/m2
00:41 56.1 °F 48.9 °F 30.1 in Calm     77% 0 in 0 W/m2
00:46 56.1 °F 48.9 °F 30.1 in Calm     77% 0 in 0 W/m2
00:51 55.9 °F 49.1 °F 30.1 in Calm     78% 0 in 0 W/m2
00:56 55.8 °F 48.9 °F 30.1 in Calm     78% 0 in 0 W/m2
01:01 55.6 °F 49.1 °F 30.1 in Calm     79% 0 in 0 W/m2
01:06 55.4 °F 48.9 °F 30.1 in Calm     79% 0 in 0 W/m2
01:11 55.2 °F 49.1 °F 30.1 in Calm     80% 0 in 0 W/m2
01:16 55 °F 48.9 °F 30.1 in Calm     80% 0 in 0 W/m2
01:21 54.9 °F 49.1 °F 30.1 in Calm     81% 0 in 0 W/m2
01:26 54.7 °F 48.9 °F 30.1 in Calm     81% 0 in 0 W/m2
01:31 54.5 °F 48.7 °F 30.1 in Calm     81% 0 in 0 W/m2
01:36 54.3 °F 48.6 °F 30.1 in Calm     81% 0 in 0 W/m2
01:41 54.1 °F 48.7 °F 30.1 in Calm     82% 0 in 0 W/m2
01:46 54 °F 48.6 °F 30.1 in Calm     82% 0 in 0 W/m2
01:51 54 °F 48.9 °F 30.1 in Calm     83% 0 in 0 W/m2
01:56 53.8 °F 48.7 °F 30.1 in Calm   1 mph 83% 0 in 0 W/m2
02:01 53.6 °F 48.6 °F 30.1 in Calm     83% 0 in 0 W/m2
02:06 53.4 °F 48.4 °F 30.1 in Calm     83% 0 in 0 W/m2
02:11 53.4 °F 48.4 °F 30.1 in Calm   1 mph 83% 0 in 0 W/m2
02:16 53.2 °F 48.6 °F 30.1 in Calm     84% 0 in 0 W/m2
02:21 53.2 °F 48.6 °F 30.1 in Calm   1 mph 84% 0 in 0 W/m2
02:26 53.1 °F 48.4 °F 30.1 in Calm     84% 0 in 0 W/m2
02:31 53.1 °F 48.4 °F 30.1 in Calm     84% 0 in 0 W/m2
02:36 52.9 °F 48.2 °F 30.1 in Calm     84% 0 in 0 W/m2
02:41 52.9 °F 48.6 °F 30.1 in Calm     85% 0 in 0 W/m2
02:46 52.7 °F 48.4 °F 30.1 in Calm     85% 0 in 0 W/m2
02:51 52.5 °F 48.2 °F 30 in Calm     85% 0 in 0 W/m2
02:56 52.5 °F 48.2 °F 30 in Calm     85% 0 in 0 W/m2
03:01 52.5 °F 48.4 °F 30 in Calm     86% 0 in 0 W/m2
03:06 52.3 °F 48.2 °F 30 in Calm     86% 0 in 0 W/m2
03:11 52.3 °F 48.2 °F 30 in Calm     86% 0 in 0 W/m2
03:16 52.2 °F 48 °F 30 in Calm     86% 0 in 0 W/m2
03:21 52 °F 47.8 °F 30 in Calm     86% 0 in 0 W/m2
03:26 51.8 °F 48 °F 30 in Calm     87% 0 in 0 W/m2
03:31 51.6 °F 47.5 °F 30 in Calm     86% 0 in 0 W/m2
03:36 51.6 °F 47.8 °F 30 in Calm     87% 0 in 0 W/m2
03:41 51.4 °F 47.7 °F 30 in Calm     87% 0 in 0 W/m2
03:46 51.4 °F 47.7 °F 30 in Calm     87% 0 in 0 W/m2
03:51 51.3 °F 47.5 °F 30 in Calm     87% 0 in 0 W/m2
03:56 51.1 °F 47.7 °F 30 in Calm     88% 0 in 0 W/m2
04:01 50.9 °F 47.5 °F 30 in Calm     88% 0 in 0 W/m2
04:06 50.7 °F 47.3 °F 30 in Calm   1 mph 88% 0 in 0 W/m2
04:11 50.7 °F 47.3 °F 30 in Calm     88% 0 in 0 W/m2
04:16 50.5 °F 47.5 °F 30 in Calm     89% 0 in 0 W/m2
04:21 50.5 °F 47.5 °F 30 in Calm     89% 0 in 0 W/m2
04:26 50.5 °F 47.5 °F 30 in Calm     89% 0 in 0 W/m2
04:31 50.5 °F 47.5 °F 30 in Calm     89% 0 in 0 W/m2
04:36 50.5 °F 47.7 °F 30 in Calm     90% 0 in 0 W/m2
04:41 50.5 °F 47.7 °F 30 in Calm     90% 0 in 0 W/m2
04:46 50.5 °F 47.7 °F 30 in Calm     90% 0 in 0 W/m2
04:51 50.5 °F 47.7 °F 30 in Calm     90% 0 in 0 W/m2
04:56 50.4 °F 47.5 °F 30 in Calm     90% 0 in 0 W/m2
05:01 50.4 °F 47.5 °F 30 in Calm     90% 0 in 0 W/m2
05:06 50.4 °F 47.5 °F 30 in Calm     90% 0 in 0 W/m2
05:11 50.2 °F 47.3 °F 30 in Calm     90% 0 in 0 W/m2
05:16 50.2 °F 47.3 °F 30 in Calm     90% 0 in 0 W/m2
05:21 50 °F 47.1 °F 30 in Calm     90% 0 in 0 W/m2
05:26 49.8 °F 46.9 °F 30 in Calm     90% 0 in 0 W/m2
05:32 49.6 °F 46.8 °F 30 in Calm     90% 0 in 0 W/m2
05:37 49.6 °F 46.8 °F 30 in Calm     90% 0 in 0 W/m2
05:42 49.5 °F 46.6 °F 30 in Calm     90% 0 in 0 W/m2
05:47 49.5 °F 46.9 °F 30 in Calm     91% 0 in 5 W/m2
05:52 49.5 °F 46.9 °F 30 in Calm     91% 0 in 7 W/m2
05:57 49.3 °F 46.8 °F 30 in Calm     91% 0 in 9 W/m2
06:02 49.3 °F 46.8 °F 30 in Calm     91% 0 in 11 W/m2
06:07 49.3 °F 46.8 °F 30 in Calm     91% 0 in 12 W/m2
06:12 49.1 °F 46.6 °F 30 in Calm     91% 0 in 16 W/m2
06:17 49.1 °F 46.9 °F 30 in Calm     92% 0 in 16 W/m2
06:22 49.3 °F 47.1 °F 30 in Calm     92% 0 in 18 W/m2
06:27 49.5 °F 47.3 °F 30 in Calm     92% 0 in 18 W/m2
06:32 49.5 °F 47.3 °F 30 in Calm     92% 0 in 19 W/m2
06:37 49.5 °F 47.3 °F 30 in Calm     92% 0 in 19 W/m2
06:42 49.5 °F 47.3 °F 30 in Calm     92% 0 in 21 W/m2
06:47 49.5 °F 47.3 °F 30 in Calm     92% 0 in 26 W/m2
06:52 49.5 °F 47.3 °F 30 in Calm     92% 0 in 33 W/m2
06:57 49.6 °F 47.5 °F 30 in Calm     92% 0 in 40 W/m2
07:02 49.6 °F 47.5 °F 30 in Calm     92% 0 in 47 W/m2
07:07 49.8 °F 47.7 °F 30 in Calm     92% 0 in 51 W/m2
07:12 50.2 °F 48 °F 30 in Calm     92% 0 in 86 W/m2
07:17 50.4 °F 48.2 °F 30 in Calm     92% 0 in 111 W/m2
07:22 50.9 °F 48.7 °F 30 in Calm     92% 0 in 121 W/m2
07:27 51.4 °F 49.3 °F 30 in Calm     92% 0 in 116 W/m2
07:32 52.3 °F 49.5 °F 30 in Calm     90% 0 in 130 W/m2
07:37 53.1 °F 49.8 °F 30 in Calm     89% 0 in 181 W/m2
07:42 54 °F 50.2 °F 30 in Calm     87% 0 in 160 W/m2
07:47 54.5 °F 50.4 °F 30 in Calm     86% 0 in 149 W/m2
07:52 55.2 °F 50.7 °F 30 in Calm   1 mph 85% 0 in 165 W/m2
07:57 56.5 °F 51.4 °F 30 in Calm     83% 0 in 134 W/m2
08:02 57.2 °F 51.1 °F 30 in Calm     80% 0 in 204 W/m2
08:07 57.9 °F 51.1 °F 30 in Calm     78% 0 in 188 W/m2
08:12 58.5 °F 51.6 °F 30 in Calm     78% 0 in 185 W/m2
08:17 58.8 °F 51.3 °F 30 in Calm   1 mph 76% 0 in 84 W/m2
08:22 58.8 °F 50.9 °F 30 in SW 0.9 mph 2 mph 75% 0 in 69 W/m2
08:27 58.8 °F 51.3 °F 30 in Calm   1 mph 76% 0 in 70 W/m2
08:32 59 °F 51.4 °F 30 in Calm   2 mph 76% 0 in 69 W/m2
08:37 59.2 °F 51.6 °F 30 in SW 0.9 mph 1 mph 76% 0 in 74 W/m2
08:42 60.1 °F 52.2 °F 30 in ENE 2.9 mph 4 mph 75% 0 in 79 W/m2
08:47 60.1 °F 52.2 °F 30 in ENE 2 mph 4 mph 75% 0 in 84 W/m2
08:52 59.9 °F 52 °F 30 in ENE 2 mph 3 mph 75% 0 in 88 W/m2
08:57 60.3 °F 52.3 °F 30 in Calm   1 mph 75% 0 in 81 W/m2
09:02 60.4 °F 52.2 °F 30 in Calm   3 mph 74% 0 in 83 W/m2
09:07 60.8 °F 52.5 °F 30 in NNW 0.9 mph 1 mph 74% 0 in 83 W/m2
09:12 61.2 °F 52 °F 30 in Calm   2 mph 72% 0 in 84 W/m2
09:17 61.3 °F 52.7 °F 30 in East 0.9 mph 4 mph 73% 0 in 83 W/m2
09:22 61.7 °F 52.5 °F 30 in East 2 mph 4 mph 72% 0 in 79 W/m2
09:27 61.9 °F 52.3 °F 30 in NW 0.9 mph 1 mph 71% 0 in 81 W/m2
09:32 62.2 °F 53.1 °F 30 in NE 0.9 mph 4 mph 72% 0 in 86 W/m2
09:37 62.2 °F 52.3 °F 30 in NE 0.9 mph 3 mph 70% 0 in 95 W/m2
09:42 62.8 °F 53.2 °F 30 in SE 0.9 mph 4 mph 71% 0 in 105 W/m2
09:47 63.3 °F 53.4 °F 30 in ENE 0.9 mph 2 mph 70% 0 in 116 W/m2
09:52 63.7 °F 53.2 °F 30 in ESE 0.9 mph 4 mph 69% 0 in 165 W/m2
09:57 64 °F 53.2 °F 30 in ENE 2 mph 4 mph 68% 0 in 120 W/m2
10:02 64.6 °F 53.4 °F 30 in NE 2 mph 5 mph 67% 0 in 213 W/m2
10:07 64.8 °F 53.6 °F 30 in ENE 2.9 mph 3 mph 67% 0 in 559 W/m2
10:12 64.9 °F 53.2 °F 30 in ENE 2 mph 5 mph 66% 0 in 578 W/m2
10:17 65.1 °F 53.4 °F 30 in NW 0.9 mph 4 mph 66% 0 in 527 W/m2
10:22 65.3 °F 53.6 °F 30 in NE 0.9 mph 4 mph 66% 0 in 306 W/m2
10:27 65.1 °F 53.4 °F 30 in East 0.9 mph 4 mph 66% 0 in 401 W/m2
10:32 65.5 °F 53.8 °F 30 in East 0.9 mph 1 mph 66% 0 in 547 W/m2
10:37 65.8 °F 54.1 °F 30 in ENE 2.9 mph 6 mph 66% 0 in 522 W/m2
10:42 66 °F 53.4 °F 30 in Calm   2 mph 64% 0 in 561 W/m2
10:52 66.6 °F 54 °F 30 in ESE 2 mph 3 mph 64% 0 in 577 W/m2
10:57 67.1 °F 54.1 °F 30 in NNE 0.9 mph 3 mph 63% 0 in 714 W/m2
11:02 67.6 °F 53.8 °F 30 in SE 2.9 mph 3 mph 61% 0 in 659 W/m2
11:07 68 °F 53.6 °F 30 in WSW 0.9 mph 2 mph 60% 0 in 626 W/m2
11:12 68.4 °F 54.3 °F 30 in NE 0.9 mph 3 mph 61% 0 in 728 W/m2
11:17 68.9 °F 54 °F 30 in East 2.9 mph 3 mph 59% 0 in 737 W/m2
11:22 69.4 °F 54 °F 30 in Calm   2 mph 58% 0 in 700 W/m2
11:27 69.4 °F 53.6 °F 30 in ENE 0.9 mph 4 mph 57% 0 in 761 W/m2
11:32 69.6 °F 53.8 °F 30 in SE 0.9 mph 4 mph 57% 0 in 773 W/m2
11:37 69.8 °F 54 °F 30 in ENE 2.9 mph 3 mph 57% 0 in 759 W/m2
11:42 70 °F 53.1 °F 30 in ENE 0.9 mph 4 mph 55% 0 in 726 W/m2
11:47 69.6 °F 52.7 °F 29.9 in Calm   2 mph 55% 0 in 770 W/m2
11:52 69.8 °F 52.9 °F 29.9 in NW 2 mph 5 mph 55% 0 in 777 W/m2
11:57 70 °F 53.1 °F 29.9 in NE 0.9 mph 6 mph 55% 0 in 798 W/m2
12:02 70.2 °F 52.2 °F 29.9 in ESE 0.9 mph 8 mph 53% 0 in 805 W/m2
12:07 70.5 °F 52.5 °F 29.9 in Calm   3 mph 53% 0 in 751 W/m2
12:12 70.7 °F 51.1 °F 29.9 in ESE 4 mph 9 mph 50% 0 in 724 W/m2
12:17 70.5 °F 50.9 °F 29.9 in NNW 0.9 mph 2 mph 50% 0 in 596 W/m2
12:22 70.5 °F 49.8 °F 29.9 in ESE 0.9 mph 9 mph 48% 0 in 752 W/m2
12:27 70.9 °F 50.2 °F 29.9 in ENE 2.9 mph 3 mph 48% 0 in 668 W/m2
12:32 71.1 °F 49.8 °F 29.9 in NE 0.9 mph 3 mph 47% 0 in 777 W/m2
12:37 71.4 °F 49.6 °F 29.9 in SE 2 mph 2 mph 46% 0 in 788 W/m2
12:42 72 °F 50.7 °F 29.9 in WNW 2 mph 6 mph 47% 0 in 626 W/m2
12:47 72.1 °F 51.4 °F 29.9 in East 0.9 mph 4 mph 48% 0 in 715 W/m2
12:52 72.3 °F 51.4 °F 29.9 in ESE 2.9 mph 5 mph 48% 0 in 761 W/m2
12:57 72.5 °F 50.5 °F 29.9 in NNE 2 mph 6 mph 46% 0 in 710 W/m2
13:02 72.7 °F 48.9 °F 29.9 in NE 2 mph 5 mph 43% 0 in 810 W/m2
13:07 72.7 °F 49.5 °F 29.9 in ENE 6 mph 8 mph 44% 0 in 800 W/m2
13:12 72.9 °F 49.1 °F 29.9 in Calm   2 mph 43% 0 in 547 W/m2
13:17 73.2 °F 48.7 °F 29.9 in ENE 4 mph 7 mph 42% 0 in 775 W/m2
13:22 73.4 °F 48.9 °F 29.9 in NNW 2 mph 4 mph 42% 0 in 304 W/m2
13:27 73.2 °F 48 °F 29.9 in ESE 2 mph 5 mph 41% 0 in 378 W/m2
13:32 73 °F 45.9 °F 29.9 in NE 2 mph 7 mph 38% 0 in 765 W/m2
13:37 73 °F 44.4 °F 29.9 in NW 0.9 mph 6 mph 36% 0 in 585 W/m2
13:42 73.2 °F 45.3 °F 29.9 in SE 0.9 mph 1 mph 37% 0 in 483 W/m2
13:47 73.6 °F 48.4 °F 29.9 in ENE 2 mph 4 mph 41% 0 in 701 W/m2
13:52 73.6 °F 47.8 °F 29.9 in NNE 2 mph 5 mph 40% 0 in 715 W/m2
13:57 73.4 °F 48.2 °F 29.9 in NE 2 mph 6 mph 41% 0 in 693 W/m2
14:02 73.2 °F 48 °F 29.9 in Calm   2 mph 41% 0 in 557 W/m2
14:07 73.2 °F 48.7 °F 29.9 in West 0.9 mph 2 mph 42% 0 in 471 W/m2
14:12 73 °F 48 °F 29.9 in West 2.9 mph 3 mph 41% 0 in 480 W/m2
14:17 73 °F 49.3 °F 29.9 in NNW 2 mph 4 mph 43% 0 in 622 W/m2
14:22 73.2 °F 48.7 °F 29.9 in North 2 mph 5 mph 42% 0 in 798 W/m2
14:27 73.2 °F 49.5 °F 29.9 in WNW 2 mph 3 mph 43% 0 in 798 W/m2
14:32 73.4 °F 49.5 °F 29.9 in NNW 0.9 mph 2 mph 43% 0 in 663 W/m2
14:37 73.8 °F 48.6 °F 29.9 in NNE 0.9 mph 4 mph 41% 0 in 882 W/m2
14:42 73.9 °F 49.5 °F 29.9 in South 0.9 mph 4 mph 42% 0 in 905 W/m2
14:47 74.3 °F 49.1 °F 29.9 in ENE 2 mph 2 mph 41% 0 in 693 W/m2
14:52 74.7 °F 49.5 °F 29.9 in West 2.9 mph 4 mph 41% 0 in 686 W/m2
14:58 74.1 °F 48.9 °F 29.9 in West 0.9 mph 4 mph 41% 0 in 603 W/m2
15:03 74.3 °F 50.4 °F 29.9 in ENE 2.9 mph 3 mph 43% 0 in 424 W/m2
15:08 74.1 °F 50.2 °F 29.9 in Calm   3 mph 43% 0 in 278 W/m2
15:13 73.9 °F 50.7 °F 29.9 in SE 0.9 mph 3 mph 44% 0 in 241 W/m2
15:18 73.6 °F 50.4 °F 29.9 in NW 2 mph 3 mph 44% 0 in 227 W/m2
15:23 73.2 °F 50 °F 29.9 in Calm   1 mph 44% 0 in 190 W/m2
15:28 73.2 °F 50.5 °F 29.9 in West 0.9 mph 1 mph 45% 0 in 162 W/m2
15:33 72.9 °F 50.4 °F 29.9 in Calm   2 mph 45% 0 in 146 W/m2
15:38 72.9 °F 50.4 °F 29.9 in WNW 0.9 mph 1 mph 45% 0 in 155 W/m2
15:43 72.7 °F 51.8 °F 29.9 in Calm   1 mph 48% 0 in 179 W/m2
15:48 72.7 °F 52.3 °F 29.9 in Calm   1 mph 49% 0 in 185 W/m2
15:53 72.7 °F 52.3 °F 29.9 in West 0.9 mph 2 mph 49% 0 in 172 W/m2
15:58 72.5 °F 54 °F 29.9 in West 0.9 mph 2 mph 52% 0 in 162 W/m2
16:03 72.3 °F 53.8 °F 29.9 in NE 4.9 mph 5 mph 52% 0 in 137 W/m2
16:08 72.3 °F 52.7 °F 29.9 in East 0.9 mph 3 mph 50% 0 in 107 W/m2
16:13 72.3 °F 52.2 °F 29.9 in East 0.9 mph 4 mph 49% 0 in 98 W/m2
16:18 72.1 °F 54.5 °F 29.9 in East 2 mph 3 mph 54% 0 in 102 W/m2
16:23 71.8 °F 54.3 °F 29.9 in ESE 0.9 mph 2 mph 54% 0 in 104 W/m2
16:28 71.6 °F 55.6 °F 29.9 in Calm   2 mph 57% 0 in 113 W/m2
16:33 71.4 °F 54 °F 29.9 in Calm   1 mph 54% 0 in 137 W/m2
16:38 71.2 °F 53.8 °F 29.9 in SW 0.9 mph 2 mph 54% 0 in 123 W/m2
16:43 71.1 °F 52.5 °F 29.9 in East 0.9 mph 3 mph 52% 0 in 100 W/m2
16:48 71.2 °F 54.3 °F 29.8 in Calm   1 mph 55% 0 in 58 W/m2
16:53 71.2 °F 55.2 °F 29.8 in Calm   3 mph 57% 0 in 46 W/m2
16:58 71.1 °F 57.4 °F 29.9 in SE 2 mph 2 mph 62% 0 in 49 W/m2
17:03 70.3 °F 57.6 °F 29.9 in Calm   1 mph 64% 0 in 63 W/m2
17:08 69.8 °F 58.8 °F 29.8 in SE 2 mph 2 mph 68% 0 in 95 W/m2
17:13 68.5 °F 57.6 °F 29.8 in SSW 2 mph 3 mph 68% 0 in 142 W/m2
17:18 67.6 °F 57.9 °F 29.8 in Calm   1 mph 71% 0 in 172 W/m2
17:23 67.5 °F 57.7 °F 29.8 in Calm   3 mph 71% 0 in 236 W/m2
17:28 67.5 °F 57.7 °F 29.8 in Calm   1 mph 71% 0 in 265 W/m2
17:33 68.2 °F 57.2 °F 29.8 in Calm   1 mph 68% 0 in 503 W/m2
17:38 69.3 °F 57.4 °F 29.8 in Calm   3 mph 66% 0 in 369 W/m2
17:43 70.3 °F 55.8 °F 29.8 in SE 0.9 mph 3 mph 60% 0 in 582 W/m2
17:48 71.4 °F 54.9 °F 29.8 in SE 0.9 mph 3 mph 56% 0 in 601 W/m2
17:53 72.1 °F 56.1 °F 29.8 in ENE 0.9 mph 1 mph 57% 0 in 221 W/m2
17:58 72.5 °F 54.3 °F 29.8 in East 0.9 mph 4 mph 53% 0 in 176 W/m2
18:03 72.5 °F 55.4 °F 29.8 in Calm   4 mph 55% 0 in 214 W/m2
18:08 72.5 °F 56.5 °F 29.8 in Calm   1 mph 57% 0 in 264 W/m2
18:13 72.5 °F 54 °F 29.8 in South 2.9 mph 4 mph 52% 0 in 264 W/m2
18:18 72.7 °F 54 °F 29.8 in ENE 2 mph 5 mph 52% 0 in 176 W/m2
18:23 72.5 °F 53.4 °F 29.8 in ESE 0.9 mph 2 mph 51% 0 in 128 W/m2
18:28 72.3 °F 54.7 °F 29.8 in Calm   1 mph 54% 0 in 86 W/m2
18:33 72.1 °F 54.1 °F 29.8 in Calm   2 mph 53% 0 in 42 W/m2
18:38 72 °F 54 °F 29.8 in NE 0.9 mph 4 mph 53% 0 in 53 W/m2
18:43 71.4 °F 55.9 °F 29.8 in SSW 2 mph 2 mph 58% 0 in 74 W/m2
18:48 70.9 °F 55.8 °F 29.8 in Calm     59% 0 in 44 W/m2
18:53 70.5 °F 56.5 °F 29.8 in Calm     61% 0 in 42 W/m2
18:58 70.2 °F 57 °F 29.8 in Calm   1 mph 63% 0 in 56 W/m2
19:03 69.8 °F 56.7 °F 29.8 in SE 0.9 mph 2 mph 63% 0 in 60 W/m2
19:08 69.3 °F 55.8 °F 29.8 in Calm   2 mph 62% 0 in 40 W/m2
19:13 69.1 °F 55.9 °F 29.8 in Calm   2 mph 63% 0 in 33 W/m2
19:18 68.7 °F 56.1 °F 29.8 in Calm     64% 0 in 35 W/m2
19:23 68.5 °F 56.3 °F 29.8 in Calm   1 mph 65% 0 in 37 W/m2
19:28 68.5 °F 55.9 °F 29.8 in Calm     64% 0 in 25 W/m2
19:33 68.4 °F 56.1 °F 29.8 in Calm   1 mph 65% 0 in 21 W/m2
19:38 68.4 °F 57.7 °F 29.8 in SSW 0.9 mph 1 mph 69% 0 in 26 W/m2
19:43 68.2 °F 58.8 °F 29.8 in Calm   1 mph 72% 0 in 42 W/m2
19:48 67.8 °F 58.8 °F 29.8 in SSW 0.9 mph 1 mph 73% 0 in 62 W/m2
19:53 67.5 °F 58.8 °F 29.8 in Calm   1 mph 74% 0 in 67 W/m2
19:58 66.9 °F 58.3 °F 29.8 in WSW 4 mph 4 mph 74% 0 in 39 W/m2
20:03 66.7 °F 57.4 °F 29.8 in WSW 2 mph 2 mph 72% 0 in 26 W/m2
20:08 66.7 °F 57.4 °F 29.8 in WSW 0.9 mph 2 mph 72% 0 in 26 W/m2
20:13 66.6 °F 57.2 °F 29.8 in Calm     72% 0 in 28 W/m2
20:18 66.6 °F 57.6 °F 29.8 in Calm   2 mph 73% 0 in 21 W/m2
20:23 66.4 °F 57.9 °F 29.8 in Calm     74% 0 in 19 W/m2
20:28 66.4 °F 57.4 °F 29.8 in Calm   1 mph 73% 0 in 12 W/m2
20:33 66.4 °F 57.4 °F 29.8 in Calm   1 mph 73% 0 in 11 W/m2
20:38 66 °F 57.2 °F 29.8 in Calm     73% 0 in 9 W/m2
20:43 66 °F 57.2 °F 29.8 in Calm     73% 0 in 5 W/m2
20:48 66 °F 57.2 °F 29.8 in Calm   1 mph 73% 0 in 5 W/m2
20:53 65.8 °F 57 °F 29.8 in Calm     73% 0 in 0 W/m2
20:58 65.8 °F 57 °F 29.8 in Calm   1 mph 73% 0 in 0 W/m2
21:03 65.7 °F 56.8 °F 29.8 in Calm     73% 0 in 0 W/m2
21:08 65.7 °F 56.8 °F 29.8 in Calm     73% 0 in 0 W/m2
21:13 65.7 °F 55.9 °F 29.8 in Calm     71% 0 in 0 W/m2
21:18 65.5 °F 56.3 °F 29.8 in Calm     72% 0 in 0 W/m2
21:23 65.5 °F 56.3 °F 29.8 in Calm     72% 0 in 0 W/m2
21:28 65.3 °F 56.1 °F 29.8 in Calm   1 mph 72% 0 in 0 W/m2
21:33 65.3 °F 56.5 °F 29.8 in Calm     73% 0 in 0 W/m2
21:38 65.1 °F 56.3 °F 29.8 in Calm     73% 0 in 0 W/m2
21:43 65.1 °F 55.9 °F 29.8 in Calm     72% 0 in 0 W/m2
21:48 65.1 °F 56.3 °F 29.8 in Calm     73% 0 in 0 W/m2
21:53 65.1 °F 56.3 °F 29.8 in Calm     73% 0 in 0 W/m2
21:58 65.1 °F 56.7 °F 29.8 in Calm     74% 0 in 0 W/m2
22:03 65.1 °F 56.7 °F 29.8 in Calm     74% 0 in 0 W/m2
22:08 64.9 °F 56.8 °F 29.8 in Calm     75% 0 in 0 W/m2
22:13 64.9 °F 56.8 °F 29.8 in Calm     75% 0 in 0 W/m2
22:18 64.8 °F 56.3 °F 29.8 in Calm     74% 0 in 0 W/m2
22:23 64.8 °F 56.7 °F 29.8 in Calm     75% 0 in 0 W/m2
22:28 64.6 °F 56.5 °F 29.8 in Calm     75% 0 in 0 W/m2
22:33 64.6 °F 56.8 °F 29.8 in Calm     76% 0 in 0 W/m2
22:38 64.4 °F 56.7 °F 29.8 in Calm     76% 0 in 0 W/m2
22:43 64.2 °F 56.5 °F 29.8 in Calm     76% 0 in 0 W/m2
22:48 64 °F 56.3 °F 29.8 in Calm     76% 0 in 0 W/m2
22:53 64 °F 55.6 °F 29.8 in Calm     74% 0 in 0 W/m2
22:58 64 °F 55.9 °F 29.8 in Calm     75% 0 in 0 W/m2
23:03 63.9 °F 56.1 °F 29.8 in Calm     76% 0 in 0 W/m2
23:08 63.7 °F 55.9 °F 29.8 in Calm     76% 0 in 0 W/m2
23:13 63.3 °F 55.6 °F 29.8 in Calm     76% 0 in 0 W/m2
23:18 63.1 °F 55.4 °F 29.8 in Calm     76% 0 in 0 W/m2
23:23 63 °F 55.6 °F 29.8 in Calm     77% 0 in 0 W/m2
23:28 62.8 °F 55.4 °F 29.8 in Calm     77% 0 in 0 W/m2
23:33 62.6 °F 55.2 °F 29.8 in Calm     77% 0 in 0 W/m2
23:38 62.4 °F 55.4 °F 29.8 in Calm     78% 0 in 0 W/m2
23:43 62.2 °F 55.2 °F 29.8 in Calm     78% 0 in 0 W/m2
23:48 62.2 °F 55.2 °F 29.8 in Calm     78% 0 in 0 W/m2
23:53 62.1 °F 55 °F 29.8 in Calm     78% 0 in 0 W/m2
23:58 62.1 °F 55.4 °F 29.8 in Calm     79% 0 in 0 W/m2
Juneau County Weather
Compliments of Weather Underground - 4 mb